EW0415 Weather Reports


time (UTC)temp
F
wind
direction
speed
knots
gust
knots
rain 1hr
in
rain 24hr
in
rain mn
in
humidity
%
barometer
mb
20260504000510 61 279 4.3 10.4 0.00 0.32 0.29 87 1015.7
20260504000040 60 249 3.5 10.4 0.00 0.32 0.29 88 1015.7
20260503235510 61 265 2.6 9.6 0.00 0.32 0.29 89 1015.6
20260503235009 60 271 3.5 9.6 0.00 0.32 0.29 89 1015.6
20260503234530 60 239 4.3 8.7 0.00 0.32 0.29 89 1015.6
20260503234009 60 290 1.7 8.7 0.00 0.32 0.29 89 1015.5
20260503233508 59 266 2.6 8.7 0.00 0.32 0.29 89 1015.5
20260503233027 59 284 2.6 8.7 0.00 0.32 0.29 89 1015.4
20260503232512 59 302 0.9 7.0 0.00 0.33 0.29 89 1015.4
20260503232011 59 292 1.7 6.1 0.00 0.33 0.29 89 1015.4
20260503231526 59 295 1.7 6.1 0.00 0.33 0.29 89 1015.3
20260503231010 59 290 0.0 4.3 0.00 0.33 0.29 89 1015.1
20260503230509 59 290 0.9 7.0 0.04 0.33 0.29 89 1015.1
20260503230028 59 0 0.9 7.0 0.07 0.33 0.29 89 1015.0
20260503225515 58 281 1.7 6.1 0.09 0.33 0.29 89 1014.9
20260503225010 58 0 0.0 2.6 0.09 0.33 0.29 89 1014.8
20260503224531 58 0 0.0 2.6 0.09 0.33 0.29 89 1014.7
20260503224014 58 284 0.0 5.2 0.09 0.33 0.29 88 1014.8
20260503223509 58 284 0.9 5.2 0.10 0.33 0.29 88 1014.7
20260503223028 58 282 0.0 5.2 0.10 0.33 0.29 88 1014.6
20260503222511 58 283 0.9 7.0 0.10 0.33 0.29 88 1014.6
20260503222012 58 281 1.7 8.7 0.11 0.33 0.29 88 1014.5
20260503221527 58 0 1.7 8.7 0.13 0.33 0.29 88 1014.5
20260503221011 58 301 0.9 7.8 0.12 0.32 0.28 88 1014.4
20260503220511 58 247 1.7 8.7 0.07 0.26 0.22 88 1014.4
20260503220027 58 263 2.6 8.7 0.04 0.24 0.20 88 1014.3
20260503215510 58 286 0.9 7.0 0.03 0.23 0.19 88 1014.0
20260503215012 58 286 1.7 7.8 0.03 0.23 0.19 88 1014.0
20260503214532 58 291 1.7 7.8 0.03 0.23 0.19 88 1013.9
20260503214010 58 0 1.7 7.0 0.03 0.23 0.19 88 1013.8
20260503213512 58 300 1.7 7.0 0.03 0.22 0.18 88 1013.9
20260503213032 58 297 0.9 7.0 0.03 0.22 0.18 88 1013.9
20260503212517 58 298 1.7 7.0 0.03 0.22 0.18 87 1013.8
20260503212011 58 293 2.6 6.1 0.02 0.22 0.18 87 1013.8
20260503211530 58 0 1.7 7.0 0.00 0.19 0.15 87 1013.8
20260503211011 58 300 1.7 8.7 0.00 0.19 0.15 87 1013.7
20260503210507 58 304 1.7 8.7 0.00 0.19 0.15 87 1013.7
20260503210043 58 304 2.6 9.6 0.00 0.19 0.15 87 1013.7
20260503205516 58 305 1.7 9.6 0.00 0.19 0.15 87 1013.7
20260503205010 58 300 2.6 9.6 0.00 0.19 0.15 87 1013.6
20260503204530 58 292 2.6 10.4 0.00 0.19 0.15 87 1013.7
20260503204013 58 304 3.5 10.4 0.00 0.19 0.15 87 1013.6
20260503203507 58 277 1.7 7.0 0.00 0.19 0.15 87 1013.4
20260503203030 58 279 2.6 7.0 0.00 0.19 0.15 87 1013.3
20260503202511 58 288 2.6 7.0 0.00 0.19 0.15 87 1013.3
20260503202011 58 292 2.6 11.3 0.00 0.19 0.15 86 1013.2
20260503201534 58 292 3.5 11.3 0.07 0.19 0.15 87 1013.4
20260503201010 58 306 3.5 10.4 0.07 0.19 0.15 86 1013.2
20260503200510 58 278 2.6 7.8 0.07 0.19 0.15 86 1013.2
20260503200026 58 273 1.7 7.8 0.07 0.19 0.15 86 1013.0
20260503195511 58 285 1.7 7.0 0.07 0.19 0.15 86 1013.1
20260503195011 58 284 1.7 7.8 0.07 0.19 0.15 85 1013.1
20260503194528 58 281 1.7 7.8 0.07 0.19 0.15 85 1013.1
20260503194009 58 294 2.6 7.0 0.07 0.19 0.15 85 1013.2
20260503193509 58 292 2.6 8.7 0.07 0.19 0.15 85 1013.1
20260503193032 58 284 1.7 10.4 0.07 0.19 0.15 84 1013.1
20260503192507 59 311 4.3 10.4 0.07 0.19 0.15 84 1013.0
20260503192011 59 322 4.3 10.4 0.07 0.19 0.15 84 1013.0
20260503191530 59 309 5.2 13.0 0.00 0.11 0.07 83 1012.9
20260503191009 59 257 4.3 13.0 0.00 0.11 0.07 83 1012.9
20260503190512 59 284 4.3 13.0 0.00 0.11 0.07 84 1012.8
20260503190039 59 297 4.3 8.7 0.00 0.11 0.07 84 1012.9
20260503185509 59 302 3.5 13.0 0.00 0.11 0.07 84 1012.8
20260503185011 59 261 3.5 13.0 0.00 0.11 0.07 84 1012.8
20260503184529 59 303 4.3 11.3 0.00 0.11 0.07 84 1012.8
20260503184011 58 296 3.5 8.7 0.00 0.11 0.07 85 1012.8
20260503183511 58 290 2.6 9.6 0.00 0.11 0.07 85 1012.8
20260503183026 58 296 2.6 9.6 0.00 0.11 0.07 85 1012.8
20260503182510 58 286 3.5 8.7 0.00 0.18 0.07 85 1012.8
20260503182011 58 305 2.6 8.7 0.00 0.18 0.07 85 1012.7
20260503181529 58 323 4.3 8.7 0.00 0.18 0.07 85 1012.8
20260503181009 58 301 3.5 10.4 0.00 0.18 0.07 85 1012.7
20260503180510 58 299 4.3 10.4 0.00 0.18 0.07 86 1012.6
20260503180028 57 302 3.5 10.4 0.00 0.18 0.07 86 1012.8
20260503175511 57 318 4.3 10.4 0.00 0.18 0.07 86 1012.8
20260503175013 57 279 4.3 10.4 0.00 0.18 0.07 86 1012.9
20260503174530 57 296 4.3 11.3 0.00 0.18 0.07 86 1012.9
20260503174015 57 289 5.2 11.3 0.00 0.18 0.07 86 1013.0
20260503173507 57 306 4.3 9.6 0.01 0.18 0.07 86 1013.1
20260503173044 57 259 3.5 9.6 0.01 0.18 0.07 86 1013.2
20260503172509 57 311 2.6 9.6 0.01 0.20 0.07 86 1013.1
20260503172013 57 294 1.7 7.8 0.01 0.20 0.07 86 1013.1
20260503171526 57 285 3.5 8.7 0.01 0.20 0.07 86 1013.1
20260503171011 57 313 3.5 10.4 0.02 0.20 0.07 86 1013.2
20260503170513 57 281 2.6 10.4 0.02 0.20 0.07 86 1013.3
20260503151008 57 313 1.7 7.0 0.03 0.16 0.03 84 1013.4
20260503150510 57 309 0.9 7.0 0.03 0.16 0.03 84 1013.3
20260503131010 57 304 0.9 7.8 0.00 0.12 0.12 84 1014.2
20260503130510 57 300 0.9 7.0 0.00 0.12 0.12 84 1014.2
20260503110510 58 284 0.0 6.1 0.02 0.11 0.11 80 1013.9
20260503090510 61 335 3.5 12.2 0.00 0.09 0.09 71 1013.0
20260503081543 62 284 1.7 7.8 0.00 0.09 0.09 71 1012.5
20260503081013 62 294 2.6 7.8 0.00 0.09 0.09 71 1012.5
20260503080511 62 304 1.7 9.6 0.00 0.09 0.09 71 1012.4
20260503072510 62 304 1.7 7.8 0.00 0.11 0.09 70 1012.3
20260503072012 62 307 1.7 7.8 0.00 0.11 0.09 70 1012.4
20260503071536 62 360 0.9 9.6 0.00 0.11 0.09 70 1012.4
20260503071014 62 297 3.5 11.3 0.00 0.11 0.09 69 1012.4
20260503070511 62 287 3.5 11.3 0.00 0.11 0.09 69 1012.4
20260503055011 65 301 5.2 13.9 0.00 0.13 0.09 59 1011.9
20260503054537 66 305 5.2 12.2 0.00 0.13 0.09 59 1011.9
20260503054011 66 308 5.2 16.5 0.00 0.13 0.09 59 1011.9
20260503053511 66 308 5.2 16.5 0.00 0.13 0.09 58 1012.0
20260503053030 66 270 5.2 16.5 0.00 0.13 0.09 58 1011.9
20260503052518 67 325 7.0 16.5 0.00 0.18 0.09 57 1012.0
20260503052010 67 324 5.2 16.5 0.00 0.18 0.09 58 1011.9
20260503051529 67 298 6.1 16.5 0.00 0.18 0.09 57 1011.9
20260503051011 67 296 5.2 16.5 0.00 0.18 0.09 57 1011.9
20260503050512 66 294 6.1 16.5 0.00 0.18 0.09 58 1012.0
20260503050029 66 286 7.0 16.5 0.00 0.18 0.09 58 1012.0
20260503045509 66 304 5.2 14.8 0.00 0.18 0.09 59 1011.9
20260503045015 66 299 6.1 13.9 0.00 0.18 0.09 57 1012.0
20260503044540 66 307 5.2 14.8 0.00 0.18 0.09 57 1012.0
20260503044013 66 314 5.2 17.4 0.00 0.18 0.09 58 1011.8
20260503043512 66 278 7.0 17.4 0.00 0.18 0.09 56 1012.0
20260503043028 67 313 5.2 15.6 0.00 0.18 0.09 57 1012.0
20260503042511 67 309 7.0 15.6 0.00 0.21 0.09 56 1012.0
20260503042011 67 296 7.0 15.6 0.00 0.21 0.09 57 1012.0
20260503041528 67 273 5.2 14.8 0.00 0.21 0.09 57 1012.0
20260503041012 67 320 6.1 14.8 0.00 0.21 0.09 57 1012.1
20260503040510 67 304 7.0 15.6 0.00 0.21 0.09 58 1012.1
20260503040029 66 321 5.2 15.6 0.00 0.21 0.09 60 1012.1
20260503035509 65 296 6.1 15.6 0.00 0.21 0.09 60 1012.3
20260503035014 66 271 6.1 14.8 0.00 0.21 0.09 58 1012.3
20260503034528 66 296 6.1 13.9 0.00 0.21 0.09 58 1012.4
20260503034010 66 303 4.3 13.9 0.00 0.21 0.09 59 1012.3
20260503033517 66 360 6.1 13.9 0.00 0.21 0.09 61 1012.4
20260503033029 65 298 5.2 13.9 0.00 0.21 0.09 62 1012.5
20260503032510 65 310 6.1 14.8 0.00 0.26 0.09 64 1012.5
20260503032010 64 320 7.8 16.5 0.00 0.26 0.09 64 1012.5
20260503031529 63 275 7.8 16.5 0.00 0.26 0.09 66 1012.5
20260503031009 63 300 4.3 14.8 0.00 0.26 0.09 67 1012.5
20260503030515 64 305 5.2 14.8 0.00 0.26 0.09 66 1012.5
20260503030029 64 202 5.2 14.8 0.00 0.26 0.09 65 1012.5
20260503025508 64 289 6.1 14.8 0.00 0.26 0.09 64 1012.6
20260503025009 65 321 3.5 11.3 0.00 0.26 0.09 65 1012.5
20260503024526 65 298 4.3 15.6 0.00 0.26 0.09 64 1012.6
20260503024010 65 277 3.5 15.6 0.00 0.26 0.09 64 1012.7
20260503023510 65 300 3.5 15.6 0.00 0.26 0.09 65 1012.7
20260503023027 65 285 6.1 15.6 0.00 0.26 0.09 64 1012.9
20260503022507 65 105 4.3 14.8 0.00 0.26 0.09 64 1012.8
20260503022015 65 315 4.3 15.6 0.00 0.26 0.09 64 1012.8
20260503021526 65 300 4.3 15.6 0.00 0.26 0.09 65 1012.9
20260503021009 64 303 6.1 13.0 0.00 0.26 0.09 65 1012.8
20260503020512 64 304 2.6 14.8 0.00 0.26 0.09 65 1012.9
20260503020027 64 311 7.0 14.8 0.00 0.26 0.09 64 1013.0
20260503015510 64 319 6.1 14.8 0.00 0.26 0.09 64 1012.9
20260503015008 64 300 6.1 14.8 0.00 0.26 0.09 64 1012.8
20260503014528 63 306 6.1 14.8 0.00 0.26 0.09 63 1012.9
20260503014009 64 307 5.2 13.9 0.00 0.26 0.09 64 1012.9
20260503013513 64 284 4.3 13.0 0.00 0.26 0.09 65 1013.0
20260503013035 63 281 5.2 13.0 0.00 0.26 0.09 66 1013.0
20260503012512 63 300 5.2 13.9 0.00 0.26 0.09 67 1013.1
20260503012014 62 340 5.2 15.6 0.00 0.26 0.09 67 1013.0
20260503011530 62 311 5.2 20.9 0.00 0.26 0.09 67 1013.0
20260503011011 62 298 6.1 20.9 0.00 0.26 0.09 67 1013.2
20260503010510 62 311 7.0 16.5 0.00 0.26 0.09 67 1013.3
20260503010028 62 286 2.6 12.2 0.00 0.26 0.09 68 1013.2
20260503005509 62 318 4.3 15.6 0.00 0.26 0.09 68 1013.1
20260503005008 62 303 5.2 15.6 0.00 0.26 0.09 68 1013.3
20260503004530 63 304 3.5 14.8 0.00 0.26 0.09 69 1013.3
20260503004009 63 291 4.3 14.8 0.00 0.26 0.09 69 1013.2
20260503003507 63 309 2.6 10.4 0.00 0.26 0.09 71 1013.3
20260503003026 62 289 4.3 9.6 0.00 0.26 0.09 71 1013.4
20260503002515 62 82 2.6 9.6 0.00 0.26 0.09 72 1013.3
20260503002012 62 302 2.6 11.3 0.00 0.26 0.09 73 1013.5
20260503001530 61 297 3.5 11.3 0.00 0.26 0.09 74 1013.4
20260503001012 61 308 1.7 7.0 0.00 0.26 0.09 75 1013.4